Location: Jaml?p?ru
(16.8289°N, 80.5167°E)
Time: 13:19:49
(UTC+00:00)

Daily predictions for brighter satellites

Satellite Brightness Start Highest point End
(mag) Time Altitude Azimuth Time Altitude Azimuth Time Altitude Azimuth
Cosmos 1503 Rocket 4.2 12:58:00 10° NNW 13:03:20 82° WSW 13:08:41 10° S
Cosmos 2100 Rocket 4.4 12:58:48 10° S 13:05:07 73° W 13:11:28 10° N
TRACE 4.5 13:02:02 10° NNE 13:05:20 55° E 13:08:36 10° S
Cosmos 1818 3.5 13:00:09 10° SSW 13:05:32 73° ESE 13:10:57 10° NNE
YAOGAN 1 3.5 13:01:55 10° SE 13:05:33 27° ENE 13:09:11 10° NNE
Meteor 1-31 Rocket 2.6 13:03:19 10° SSE 13:07:01 84° ENE 13:10:41 10° N
Cosmos 2263 Rocket 3.7 13:06:51 10° NW 13:12:10 42° WSW 13:17:27 10° S
Hubble Space Telescope 2.2 13:10:11 10° NW 13:13:29 25° NNE 13:16:47 10° ENE
Meteor 1-27 Rocket 4.2 13:10:16 10° NNE 13:15:29 39° E 13:20:46 10° SSE
Cosmos 841 Rocket 3.6 13:10:36 10° SSW 13:15:49 84° WNW 13:21:01 10° NNE
CZ-2C R/B 2.8 13:15:30 10° S 13:19:04 72° WSW 13:22:36 10° NNW
Cosmos 2016 Rocket 3.9 13:14:39 10° S 13:20:47 81° E 13:26:52 10° N
Cosmos 1626 3.5 13:19:53 10° NE 13:21:07 12° E 13:21:07 12° E
Cosmos 2292 Rocket 4.3 13:21:27 10° NE 13:23:25 15° E 13:24:00 15° E
Cosmos 990 Rocket 4.2 13:22:55 10° N 13:27:55 48° ENE 13:32:52 10° SSE
Cosmos 1844 4.4 13:26:54 10° N 13:31:49 32° ENE 13:36:02 13° SE
Aureole 1 Rocket 4.3 13:32:39 10° NE 13:34:03 14° ENE 13:34:03 14° ENE
Cosmos 1726 2.0 13:32:38 10° SSE 13:35:14 34° E 13:37:48 10° NNE
SPOT 1/Viking Rocket 4.3 13:34:04 10° SE 13:38:36 31° ENE 13:43:08 10° NNE
Cosmos 1743 2.4 13:38:51 10° S 13:42:23 62° E 13:45:55 10° NNE
USA 215 3.3 13:37:50 10° NE 13:44:14 59° SE 13:50:39 10° SSW
H-II Stage 2 3.3 13:41:33 10° W 13:44:46 52° SSW 13:54:46 15° SE
Resurs 1-3 3.9 13:41:44 13° SE 13:45:17 41° ENE 13:49:21 10° N
Landsat 7 4.0 13:40:46 10° S 13:45:26 72° WSW 13:50:06 10° NNW
Helios 1B rocket 3.0 13:45:11 10° S 13:48:57 53° WSW 13:52:43 10° NNW
Aurora 2 Rocket 3.3 13:45:56 10° NW 13:49:46 41° NNE 13:52:19 24° ENE
Iridium 4 Rocket 3.9 13:47:13 10° NNE 13:50:20 27° ENE 13:50:20 27° ENE
Cosmos 2237 Rocket 3.5 13:47:54 10° SSE 13:50:11 19° SE 13:50:11 19° SE
ISS -3.8 13:49:14 10° SW 13:52:33 81° NW 13:54:40 21° NE
Cosmos 1814 Rocket 3.9 13:56:22 10° S 14:01:40 76° ESE 14:06:58 10° NNE
Resurs 01 Rocket 3.5 14:04:35 16° NE 14:04:35 16° NE 14:05:47 10° NNE
Cosmos 1898 Rocket 3.8 13:58:45 10° N 14:03:45 43° ENE 14:04:48 38° ESE
ATLAS 3B R/B 3.3 13:57:25 10° N 14:04:41 42° ENE 14:07:19 32° ESE
Cosmos 2219 Rocket 4.5 14:00:22 10° SW 14:04:59 25° WNW 14:09:35 10° NNW
Meteor PRIRODA 4.0 14:15:01 48° N 14:15:01 48° N 14:17:30 10° N
Cosmos 1151 Rocket 2.8 14:11:30 10° N 14:15:44 80° E 14:16:18 65° SSE
Intelsat 5-1 Rocket 2.0 14:17:05 10° WSW 14:20:16 90° SW 14:21:02 63° ENE
Cosmos 1980 3.8 14:15:20 10° S 14:26:26 - NNE 14:20:15 51° SE
CZ-4B R/B 3.4 14:18:12 22° S 14:21:16 74° WSW 14:25:59 10° NNW
Timation 2 Rocket 4.4 14:19:08 10° N 14:25:12 44° ENE 14:25:12 44° ENE
Cosmos 1891 Rocket 4.2 14:20:05 10° S 14:26:04 79° E 14:32:07 10° N
GEOS 3 Rocket 4.1 14:32:47 45° NNE 14:32:47 45° NNE 14:36:59 10° NNW
Cosmos 1766 Rocket 4.2 14:28:15 10° SSW 14:32:26 52° W 14:36:38 10° N
Mugunghwa Rocket 4.1 14:28:14 10° WNW 14:34:23 55° NNE 14:35:11 52° NE
SJ-6B 4.0 14:36:28 37° W 14:36:28 37° W 14:39:51 10° NNW
Palapa 6 Rocket 4.4 14:29:01 10° W 14:36:32 61° N 14:38:19 47° NE
H-2A R/B 3.2 14:14:03 10° WSW 14:37:34 73° NNW 14:38:55 52° NE
Cosmos 1844 Rocket 3.9 14:33:19 10° NW 14:38:34 40° WSW 14:42:41 16° SSW
Cosmos 1513 Rocket 4.5 14:39:03 10° S 14:45:06 75° W 14:51:09 10° N
Cosmos 1464 Rocket 4.2 14:49:37 59° NNE 14:49:37 59° NNE 14:54:39 10° N
CZ-4 R/B 3.7 14:55:30 19° NW 14:55:30 19° NW 14:56:45 10° NNW
PAYLOAD B 4.4 14:53:26 66° WSW 14:53:26 66° WSW 14:58:58 10° NNW
Hubble Space Telescope 3.0 14:50:12 10° WNW 14:51:47 23° WNW 14:51:47 23° WNW
CZ-4B R/B 4.4 15:09:30 38° NNW 15:09:30 38° NNW 15:12:51 10° NNW
ACS3 Solar Sail 3.6 15:34:34 25° NNW 15:34:34 25° NNW 15:37:04 10° NNW
ATLAS CENTAUR R/B 4.0 15:28:02 10° NW 15:33:29 58° NW 15:33:29 58° NW
ATLAS 3B R/B 4.5 15:48:56 10° NW 15:54:37 26° WSW 15:54:37 26° WSW
H-2A R/B 4.4 21:34:12 10° NE 21:37:57 19° E 21:38:23 19° ESE
CENTAUR R/B 4.2 21:48:04 21° NNE 21:48:04 21° NNE 21:49:54 10° NNE
Atlas Centaur 2 3.7 21:48:40 33° ENE 21:48:40 33° ENE 21:52:12 10° ENE
IUS-13 SRM-1 4.5 22:02:38 57° S 22:03:46 62° SE 22:39:13 10° ENE
IRS-1D 4.1 22:13:58 10° NNE 22:18:11 56° NNE 22:18:11 56° NNE
DELTA-4 R/B 4.2 22:21:56 30° SE 22:21:56 30° SE 22:25:17 10° ESE
Cosmos 676 Rocket 3.9 22:31:19 78° NE 22:31:19 78° NE 22:36:11 10° NNE
SJ 16-02 4.3 22:38:20 10° SE 22:40:27 13° E 22:42:34 10° ENE
Cosmos 1339 Rocket 4.3 22:39:49 58° SW 22:40:51 69° W 22:46:53 10° N
SL-08 R/B 4.5 22:35:18 10° N 22:41:41 85° E 22:47:56 10° S
NOSS 3-2 (C) 3.5 22:40:43 34° S 22:42:31 53° ESE 22:47:28 10° NE
Ariane H10+ 4.5 22:44:39 13° SE 22:44:39 13° SE 22:45:05 10° SE
ATLAS 5 CENTAUR R/B 2.2 22:48:47 34° NNE 22:48:47 34° NNE 22:50:43 10° NNE
Cosmos 1939 Rocket 3.5 22:44:43 10° NNE 22:48:35 52° E 22:50:43 24° SSE
Cosmos 1821 Rocket 4.4 22:44:26 10° NNW 22:48:56 40° WNW 22:48:56 40° WNW
Cosmos 2360 Rocket 4.5 22:46:18 10° NNE 22:50:45 24° ENE 22:55:12 10° ESE
Cosmos 1626 Rocket 3.6 22:47:38 10° N 22:51:22 60° NW 22:51:22 60° NW
DMSP B5D2-2 3.9 22:49:02 10° S 22:54:09 63° WSW 22:59:18 10° NNW
Cosmos 1484 Rocket 3.1 22:50:49 10° NNE 22:54:30 60° E 22:56:19 28° S
BREEZE-M DEB (TANK) 4.2 22:54:46 19° S 22:56:54 27° SSE 22:58:59 10° E
ATLAS 2AS CENTAUR R/B 4.4 23:01:52 14° SSW 23:01:52 14° SSW 23:02:51 10° SSW
FUSE 4.2 22:56:07 42° SSW 22:57:39 59° SSE 23:02:52 10° ENE
Cosmos 2322 Rocket 3.5 22:54:35 10° N 22:59:52 41° ENE 23:05:07 10° SE
Cosmos 1666 3.2 22:56:43 10° N 22:58:55 39° N 22:58:55 39° N
Delta 168 4.2 23:02:59 19° SSE 23:03:25 20° SSE 23:05:47 10° ESE
Cosmos 2239 Rocket 4.5 22:59:03 10° NNW 23:05:00 54° W 23:10:55 10° SSW
SeaSat 1 2.3 23:01:12 10° SSE 23:06:04 74° WSW 23:10:58 10° NNW
Cosmos 2333 Rocket 3.9 23:03:11 10° N 23:08:21 35° ENE 23:13:27 10° SE
Cosmos 1867 4.3 23:08:25 32° WNW 23:08:57 32° WNW 23:13:48 10° N
Cosmos 2058 Rocket 4.4 23:07:43 10° SSE 23:11:49 41° E 23:15:57 10° NNE
ARGOS 3.2 23:08:15 10° NNE 23:13:37 83° ESE 23:18:58 10° S
Yuri Rocket 4.1 23:11:30 24° WNW 23:16:20 63° SSW 23:22:00 10° SE
H-2A R/B 2.8 23:12:22 10° NNW 23:17:07 32° WNW 23:18:56 26° WSW
Cosmos 2278 3.8 23:12:26 10° NNW 23:17:52 52° WSW 23:23:18 10° S
Cosmos 1758 Rocket 3.7 23:13:52 10° NNW 23:18:04 49° W 23:22:13 10° SSW
GPS 2-15 Rocket1 3.4 23:15:58 27° WNW 23:18:26 63° N 23:23:09 10° E
BREEZE-M DEB (TANK) 4.3 23:07:03 10° NW 23:18:55 55° WSW 23:23:12 10° SSE
NOSS 3-2 (A) 4.4 23:19:28 18° WNW 23:19:31 18° WNW 23:23:00 10° NNW
SL-16 R/B 2.1 23:14:20 10° NNW 23:19:54 65° WSW 23:25:29 10° S
Cosmos 374 Rocket 4.3 23:19:07 25° SW 23:21:17 65° WNW 23:25:39 10° NNE
Lacrosse 5 rocket 1.9 23:24:32 27° WNW 23:24:56 28° NW 23:27:59 10° N
GPS 2-12 Rocket1 3.3 23:22:52 27° W 23:25:07 52° SSW 23:29:41 10° ESE
CZ-3 Stage 3 2.3 23:25:19 25° W 23:27:15 52° NNW 23:37:11 10° ENE
Cosmos 1726 Rocket 3.7 23:23:28 10° SSW 23:27:35 46° W 23:31:42 10° N
Cosmos 1812 3.4 23:28:42 26° W 23:28:52 26° W 23:31:51 10° NNW
Cosmos 1535 Rocket 4.5 23:24:36 10° N 23:30:50 89° W 23:36:59 10° S
ATLAS 5 CENTAUR R/B 3.6 23:06:39 16° W 23:32:58 82° N 23:39:37 10° E
Cosmos 1741 Rocket 3.9 23:27:50 10° SSW 23:33:04 71° WNW 23:38:17 10° N
OAO 3 Rocket 3.0 23:30:13 16° WNW 23:33:54 70° SW 23:38:33 10° SE
Atlas Centaur 2 3.5 23:30:51 15° WNW 23:35:10 35° NNW 23:41:40 10° NE
SWIFT 2.1 23:34:21 18° WNW 23:37:08 81° N 23:41:03 10° E
Meteor 2-13 Rocket 4.4 23:31:09 10° SSW 23:37:13 62° W 23:43:16 10° N
ARIANE 5 R/B 3.2 23:33:07 10° NNE 23:38:07 58° ESE 23:43:02 10° S
SME Rocket 4.0 23:36:31 10° NNW 23:39:50 28° WNW 23:43:51 10° SW
Cosmos-2242 4.4 23:39:47 10° SSE 23:43:43 41° E 23:47:39 10° NNE
IRS-1C 4.4 23:39:41 10° NNE 23:44:59 75° ESE 23:50:17 10° S
ISS -3.6 23:41:44 10° NW 23:45:06 77° NE 23:48:29 10° SE
Cosmos 1238 Rocket 4.1 23:41:17 10° S 23:46:07 63° E 23:51:32 10° NNE
Cosmos 1782 3.1 23:42:30 10° S 23:46:14 66° E 23:49:57 10° NNE
GP-B 3.1 23:44:34 10° S 23:48:54 61° W 23:53:14 10° NNW
Cosmos 1818 4.1 23:43:32 10° NNW 23:48:55 64° ENE 23:54:14 10° SSE
CZ-3 R/B 3.2 23:31:43 14° W 23:49:42 50° NNW 23:56:13 10° NE
USA 306 3.5 23:48:44 14° W 23:49:47 16° WSW 23:51:35 10° SSW
FALCON 9 R/B 4.3 23:09:51 10° SW 23:49:50 69° SSE 23:57:25 10° ENE
Cosmos 468 Rocket 4.1 23:45:17 10° NNW 23:50:31 87° ENE 23:55:47 10° SSE
Cosmos 1378 2.6 23:48:28 10° S 23:51:34 89° W 23:54:39 10° N
JB-3 4.3 23:48:27 10° S 23:52:05 50° W 23:55:47 10° NNW
H-2A R/B 2.2 23:50:08 10° N 23:52:59 47° WNW 23:55:50 10° SSW
BREEZE-M R/B 2.9 23:50:24 11° WSW 23:53:15 31° NW 23:55:32 10° NNE
NOAA 12 4.1 23:48:32 10° N 23:53:43 68° WNW 23:58:54 10° SSW
USA 238 DEB 3.4 23:47:44 10° SSW 23:53:44 78° WNW 23:59:58 10° NNE
ASTRO E2 3.4 23:51:08 10° NW 23:54:12 39° NNE 23:57:17 10° E
